Rensselaer, IN

12:25 PM CDT on July 22, 2017 (GMT -0500)
Jasper County

Weather History for KRZL - April, 2013

Change the Weather History Date:

Saturday, April 20, 2013

  Actual Average (KIKK) Record (KIKK)
Temperature  
Mean Temperature 38 °F -  
Max Temperature 44 °F 64 °F 85 °F (1985)
Min Temperature 32 °F 42 °F 27 °F (1983)
Degree Days  
Heating Degree Days 27    
Moisture  
Dew Point 27 °F    
Average Humidity 70    
Maximum Humidity 93    
Minimum Humidity 42    
Precipitation  
Precipitation 0.00 in - - ()
Sea Level Pressure  
Sea Level Pressure 30.22 in    
Wind  
Wind Speed 10 mph (WNW)    
Max Wind Speed 15 mph    
Max Gust Speed 22 mph    
Visibility 10 miles    
Events      
Averages and records for this station are not official NWS values.
T = Trace of Precipitation, MM = Missing Value Source: NWS Daily Summary

Daily Weather History Graph

Daily Weather History Graph

Search for Another Location

Airport or City:

Trip Planner

Search our weather history database for the weather conditions in past years. The results will help you decide how hot, cold, wet, or windy it might be!

Date:

Astronomy

Apr. 20, 2013 Rise Set
Actual Time 6:01 AM CDT 7:34 PM CDT
Civil Twilight 5:32 AM CDT 8:02 PM CDT
Nautical Twilight 4:58 AM CDT 8:37 PM CDT
Astronomical Twilight 4:21 AM CDT 9:15 PM CDT
Moon 2:15 PM CDT (4/20) 2:53 AM CDT (4/20)
Length of Visible Light 14h 30m
Length of Day
13h 32m
Waxing Gibbous, 71% of the Moon is Illuminated
Apr 20
Waxing Gibbous
Apr 25
Full
May 2
Last Quarter
May 9
New
May 17
First Quarter

Hourly Weather History & Observations

Time (CDT) Temp. Windchill Dew Point Humidity Pressure Visibility Wind Dir Wind Speed Gust Speed Precip Events Conditions
12:15 AM 33.8 °F 24.8 °F 32.0 °F 93% 29.95 in 10.0 mi West 12.7 mph 18.4 mph N/A   Unknown
12:35 AM 33.8 °F 24.8 °F 32.0 °F 93% 29.96 in 10.0 mi West 12.7 mph 18.4 mph N/A   Unknown
12:55 AM 33.8 °F 24.3 °F 30.2 °F 87% 29.97 in 10.0 mi West 13.8 mph 21.9 mph N/A   Unknown
1:15 AM 33.8 °F 23.9 °F 30.2 °F 87% 29.97 in 10.0 mi West 15.0 mph 19.6 mph N/A   Unknown
1:35 AM 33.8 °F 24.3 °F 30.2 °F 87% 29.98 in 10.0 mi West 13.8 mph - N/A   Unknown
1:55 AM 33.8 °F 24.3 °F 30.2 °F 87% 29.98 in 10.0 mi West 13.8 mph 18.4 mph N/A   Unknown
2:15 AM 33.8 °F 24.8 °F 30.2 °F 87% 29.99 in 10.0 mi West 12.7 mph - N/A   Unknown
2:35 AM 33.8 °F 24.3 °F 30.2 °F 87% 29.99 in 10.0 mi West 13.8 mph 18.4 mph N/A   Unknown
2:55 AM 33.8 °F 25.3 °F 30.2 °F 87% 30.00 in 10.0 mi West 11.5 mph - N/A   Unknown
3:15 AM 32.0 °F 23.6 °F 30.2 °F 93% 30.01 in 10.0 mi West 10.4 mph - N/A   Unknown
3:35 AM 32.0 °F 24.2 °F 30.2 °F 93% 30.02 in 10.0 mi West 9.2 mph - N/A   Unknown
3:55 AM 32.0 °F 24.8 °F 30.2 °F 93% 30.03 in 10.0 mi West 8.1 mph - N/A   Unknown
4:15 AM 32.0 °F 24.8 °F 30.2 °F 93% 30.04 in 10.0 mi West 8.1 mph - N/A   Unknown
4:35 AM 32.0 °F 25.6 °F 30.2 °F 93% 30.05 in 10.0 mi West 6.9 mph - N/A   Unknown
4:55 AM 32.0 °F 25.6 °F 30.2 °F 93% 30.06 in 10.0 mi West 6.9 mph - N/A   Unknown
5:15 AM 32.0 °F 24.8 °F 30.2 °F 93% 30.07 in 10.0 mi West 8.1 mph - N/A   Unknown
5:55 AM 32.0 °F 24.8 °F 30.2 °F 93% 30.09 in 10.0 mi West 8.1 mph - N/A   Unknown
6:15 AM 32.0 °F 24.2 °F 30.2 °F 93% 30.10 in 10.0 mi West 9.2 mph - N/A   Unknown
6:35 AM 32.0 °F 25.6 °F 30.2 °F 93% 30.11 in 10.0 mi West 6.9 mph - N/A   Unknown
6:55 AM 32.0 °F 24.2 °F 30.2 °F 93% 30.12 in 10.0 mi West 9.2 mph - N/A   Unknown
7:15 AM 32.0 °F 24.2 °F 28.4 °F 87% 30.14 in 10.0 mi WNW 9.2 mph - N/A   Unknown
7:35 AM 33.8 °F 25.8 °F 28.4 °F 81% 30.15 in 10.0 mi WNW 10.4 mph - N/A   Unknown
7:55 AM 33.8 °F 26.4 °F 28.4 °F 81% 30.17 in 10.0 mi WNW 9.2 mph - N/A   Unknown
8:15 AM 33.8 °F 27.0 °F 28.4 °F 81% 30.18 in 10.0 mi NW 8.1 mph 17.3 mph N/A   Unknown
8:35 AM 35.6 °F 28.0 °F 26.6 °F 70% 30.19 in 10.0 mi WNW 10.4 mph - N/A   Unknown
8:55 AM 35.6 °F 27.1 °F 26.6 °F 70% 30.19 in 10.0 mi NW 12.7 mph - N/A   Unknown
9:15 AM 35.6 °F 28.0 °F 26.6 °F 70% 30.20 in 10.0 mi WNW 10.4 mph - N/A   Unknown
9:35 AM 37.4 °F 30.3 °F 26.6 °F 65% 30.21 in 10.0 mi NW 10.4 mph - N/A   Unknown
9:55 AM 37.4 °F 29.8 °F 28.4 °F 70% 30.23 in 10.0 mi West 11.5 mph 17.3 mph N/A   Unknown
10:15 AM 37.4 °F 31.4 °F 28.4 °F 70% 30.24 in 10.0 mi WNW 8.1 mph 16.1 mph N/A   Unknown
10:35 AM 37.4 °F 29.3 °F 28.4 °F 70% 30.25 in 10.0 mi West 12.7 mph - N/A   Unknown
10:55 AM 37.4 °F 29.8 °F 26.6 °F 65% 30.26 in 10.0 mi WNW 11.5 mph - N/A   Unknown
11:15 AM 41.0 °F 35.2 °F 26.6 °F 57% 30.27 in 10.0 mi West 9.2 mph - N/A   Unknown
11:35 AM 41.0 °F 33.5 °F 26.6 °F 57% 30.27 in 10.0 mi West 13.8 mph 18.4 mph N/A   Unknown
11:55 AM 41.0 °F 33.9 °F 26.6 °F 57% 30.27 in 10.0 mi WNW 12.7 mph - N/A   Unknown
12:15 PM 41.0 °F 33.5 °F 24.8 °F 53% 30.27 in 10.0 mi NW 13.8 mph 17.3 mph N/A   Unknown
12:35 PM 42.8 °F 35.8 °F 24.8 °F 49% 30.27 in 10.0 mi WNW 13.8 mph 20.7 mph N/A   Unknown
12:55 PM 41.0 °F 33.9 °F 23.0 °F 49% 30.27 in 10.0 mi WNW 12.7 mph 19.6 mph N/A   Unknown
1:15 PM 42.8 °F 36.2 °F 24.8 °F 49% 30.28 in 10.0 mi West 12.7 mph 18.4 mph N/A   Unknown
1:35 PM 42.8 °F 37.0 °F 24.8 °F 49% 30.28 in 10.0 mi West 10.4 mph 18.4 mph N/A   Unknown
1:55 PM 42.8 °F 37.5 °F 23.0 °F 46% 30.29 in 10.0 mi NW 9.2 mph - N/A   Unknown
2:15 PM 42.8 °F 37.5 °F 23.0 °F 46% 30.30 in 10.0 mi NW 9.2 mph 17.3 mph N/A   Unknown
2:35 PM 42.8 °F 37.5 °F 23.0 °F 46% 30.30 in 10.0 mi West 9.2 mph 17.3 mph N/A   Unknown
2:55 PM 42.8 °F 36.6 °F 23.0 °F 46% 30.30 in 10.0 mi West 11.5 mph 16.1 mph N/A   Unknown
3:15 PM 44.6 °F 39.7 °F 23.0 °F 43% 30.31 in 10.0 mi West 9.2 mph 16.1 mph N/A   Unknown
3:35 PM 42.8 °F 36.6 °F 23.0 °F 46% 30.31 in 10.0 mi WNW 11.5 mph - N/A   Unknown
3:55 PM 44.6 °F 39.2 °F 23.0 °F 43% 30.31 in 10.0 mi WNW 10.4 mph - N/A   Unknown
4:15 PM 44.6 °F 41.4 °F 23.0 °F 43% 30.31 in 10.0 mi West 5.8 mph - N/A   Unknown
4:55 PM 42.8 °F 36.6 °F 24.8 °F 49% 30.32 in 10.0 mi NW 11.5 mph - N/A   Unknown
5:15 PM 42.8 °F 38.0 °F 23.0 °F 46% 30.32 in 10.0 mi WNW 8.1 mph - N/A   Unknown
5:35 PM 44.6 °F 41.4 °F 23.0 °F 43% 30.32 in 10.0 mi NW 5.8 mph - N/A   Unknown
5:55 PM 42.8 °F 40.1 °F 21.2 °F 42% 30.32 in 10.0 mi NNW 4.6 mph - N/A   Unknown
6:15 PM 42.8 °F 38.0 °F 23.0 °F 46% 30.32 in 10.0 mi NW 8.1 mph - N/A   Unknown
6:35 PM 42.8 °F 40.1 °F 21.2 °F 42% 30.33 in 10.0 mi West 4.6 mph - N/A   Unknown
6:55 PM 42.8 °F 39.3 °F 21.2 °F 42% 30.33 in 10.0 mi NW 5.8 mph - N/A   Unknown
7:15 PM 41.0 °F 39.0 °F 23.0 °F 49% 30.34 in 10.0 mi NW 3.5 mph - N/A   Unknown
7:35 PM 41.0 °F 39.0 °F 24.8 °F 53% 30.34 in 10.0 mi North 3.5 mph - N/A   Unknown
7:55 PM 39.2 °F 37.0 °F 26.6 °F 61% 30.35 in 10.0 mi North 3.5 mph - N/A   Unknown
8:15 PM 37.4 °F 33.8 °F 24.8 °F 60% 30.36 in 10.0 mi North 4.6 mph - N/A   Unknown
8:35 PM 37.4 °F - 24.8 °F 60% 30.38 in 10.0 mi Calm Calm - N/A   Unknown
8:55 PM 35.6 °F 31.7 °F 28.4 °F 75% 30.39 in 10.0 mi NE 4.6 mph - N/A   Unknown
9:15 PM 33.8 °F 29.6 °F 26.6 °F 75% 30.40 in 10.0 mi NE 4.6 mph - N/A   Unknown
9:35 PM 33.8 °F 29.6 °F 28.4 °F 81% 30.41 in 10.0 mi NE 4.6 mph - N/A   Unknown
9:55 PM 32.0 °F 27.5 °F 28.4 °F 87% 30.41 in 10.0 mi ENE 4.6 mph - N/A   Unknown
10:15 PM 33.8 °F 28.6 °F 28.4 °F 81% 30.42 in 10.0 mi NE 5.8 mph - N/A   Unknown
10:35 PM 33.8 °F 27.7 °F 28.4 °F 81% 30.43 in 10.0 mi ENE 6.9 mph - N/A   Unknown
10:55 PM 33.8 °F 28.6 °F 28.4 °F 81% 30.43 in 10.0 mi ENE 5.8 mph - N/A   Unknown
11:15 PM 32.0 °F 26.4 °F 28.4 °F 87% 30.43 in 10.0 mi ENE 5.8 mph - N/A   Unknown
11:35 PM 32.0 °F 26.4 °F 28.4 °F 87% 30.43 in 10.0 mi ENE 5.8 mph - N/A   Unknown
11:55 PM 32.0 °F 25.6 °F 28.4 °F 87% 30.43 in 10.0 mi ENE 6.9 mph - N/A   Unknown